CW6353 Weather Reports


Display with metric or nautical units.
time (UTC)temp
F
wind
direction
speed
MPH
gust
MPH
rain 1hr
in
rain 24hr
in
rain mn
in
humidity
%
barometer
mb
20260504180010 75 261 2.0 6.0 0.00 0.00 0.00 37 1016.4
20260504175503 75 220 4.0 6.0 0.00 0.00 0.00 37 1016.5
20260504175001 75 78 1.0 6.0 0.00 0.00 0.00 39 1016.6
20260504174503 75 338 3.0 6.0 0.00 0.00 0.00 40 1016.7
20260504174005 74 98 0.0 7.0 0.00 0.00 0.00 39 1016.7
20260504173503 74 263 3.0 7.0 0.00 0.00 0.00 39 1016.8
20260504173005 74 234 4.0 7.0 0.00 0.00 0.00 36 1016.9
20260504172502 74 223 2.0 10.0 0.00 0.00 0.00 37 1016.9
20260504172004 73 153 3.0 10.0 0.00 0.00 0.00 41 1017.0
20260504171516 74 236 4.0 9.0 0.00 0.00 0.00 38 1017.1
20260504171005 74 153 2.0 9.0 0.00 0.00 0.00 40 1017.1
20260504170506 74 82 2.0 9.0 0.00 0.00 0.00 37 1017.1
20260504151004 69 254 3.0 9.0 0.00 0.00 0.00 50 1017.7
20260504150504 68 246 5.0 9.0 0.00 0.00 0.00 49 1017.8
20260504141008 65 191 5.0 9.0 0.00 0.00 0.00 55 1017.9
20260504140503 65 221 5.0 11.0 0.00 0.00 0.00 56 1018.0
20260504130509 59 215 3.0 5.0 0.00 0.00 0.00 67 1018.1
20260504110502 45 236 0.0 1.0 0.00 0.00 0.00 84 1017.4
20260504100503 46 236 0.0 1.0 0.00 0.00 0.00 82 1017.2
20260504082003 46 211 0.0 3.0 0.00 0.00 0.00 82 1017.3
20260504081518 46 211 1.0 3.0 0.00 0.00 0.00 82 1017.3
20260504081003 46 226 1.0 3.0 0.00 0.00 0.00 81 1017.3
20260504080504 46 212 0.0 2.0 0.00 0.00 0.00 82 1017.4
20260504050502 46 325 0.0 0.0 0.00 0.00 0.00 82 1018.6
20260504050021 46 326 0.0 0.0 0.00 0.00 0.00 82 1018.7
20260504045507 46 326 0.0 0.0 0.00 0.00 0.00 82 1018.7
20260504045007 46 325 0.0 0.0 0.00 0.00 0.00 82 1018.6
20260504044508 46 325 0.0 0.0 0.00 0.00 0.00 81 1018.7
20260504044002 47 325 0.0 2.0 0.00 0.00 0.00 81 1018.6
20260504043503 47 325 0.0 2.0 0.00 0.00 0.00 80 1018.6
20260504043016 47 325 0.0 2.0 0.00 0.00 0.00 81 1018.6
20260504042503 47 325 0.0 2.0 0.00 0.00 0.00 81 1018.6
20260504042007 47 325 0.0 0.0 0.00 0.00 0.00 82 1018.7
20260504041516 47 325 0.0 0.0 0.00 0.00 0.00 81 1018.8
20260504041006 47 325 0.0 0.0 0.00 0.00 0.00 81 1018.9
20260504040507 47 325 0.0 0.0 0.00 0.00 0.00 80 1018.9
20260504040012 47 325 0.0 2.0 0.00 0.00 0.00 81 1018.9
20260504035507 48 325 0.0 2.0 0.00 0.00 0.00 82 1019.0
20260504035008 48 325 0.0 0.0 0.00 0.00 0.00 81 1019.0
20260504034508 48 325 0.0 0.0 0.00 0.00 0.00 82 1019.1
20260504034008 48 325 0.0 0.0 0.00 0.00 0.00 82 1019.2
20260504033508 48 325 0.0 2.0 0.00 0.00 0.00 82 1019.1
20260504033026 48 325 0.0 2.0 0.00 0.00 0.00 81 1019.1
20260504032503 48 325 0.0 2.0 0.00 0.00 0.00 81 1019.1
20260504032005 49 325 1.0 2.0 0.00 0.00 0.00 80 1019.1
20260504031507 49 325 0.0 2.0 0.00 0.00 0.00 80 1018.9
20260504031003 49 325 1.0 1.0 0.00 0.00 0.00 80 1019.0
20260504030505 49 325 1.0 1.0 0.00 0.00 0.00 80 1018.9
20260504030007 49 325 0.0 1.0 0.00 0.00 0.00 79 1018.9
20260504025502 49 325 0.0 1.0 0.00 0.00 0.00 79 1018.9
20260504025003 50 325 0.0 1.0 0.00 0.00 0.00 79 1018.8
20260504024510 50 325 0.0 1.0 0.00 0.00 0.00 79 1018.9
20260504024004 50 325 0.0 2.0 0.00 0.00 0.00 78 1018.8
20260504023503 50 325 0.0 2.0 0.00 0.00 0.00 78 1018.8
20260504023008 50 325 0.0 2.0 0.00 0.00 0.00 78 1018.8
20260504022503 50 325 0.0 2.0 0.00 0.00 0.00 78 1018.8
20260504022003 50 325 0.0 0.0 0.00 0.00 0.00 77 1018.7
20260504021508 50 325 0.0 1.0 0.00 0.00 0.00 78 1018.6
20260504021003 51 325 0.0 1.0 0.00 0.00 0.00 77 1018.5
20260504020503 51 325 0.0 1.0 0.00 0.00 0.00 77 1018.7
20260504020015 51 325 0.0 2.0 0.00 0.00 0.00 77 1018.5
20260504015504 51 325 0.0 2.0 0.00 0.00 0.00 76 1018.5
20260504015004 52 325 0.0 2.0 0.00 0.00 0.00 76 1018.6
20260504014507 52 325 0.0 2.0 0.00 0.00 0.00 76 1018.6
20260504014002 52 325 1.0 2.0 0.00 0.00 0.00 75 1018.5
20260504013505 52 325 0.0 2.0 0.00 0.00 0.00 75 1018.3
20260504013010 52 325 0.0 2.0 0.00 0.00 0.00 75 1018.2
20260504012505 53 325 0.0 2.0 0.00 0.00 0.00 74 1018.3
20260504012006 53 325 0.0 2.0 0.00 0.00 0.00 75 1018.3
20260504011504 53 325 1.0 2.0 0.00 0.00 0.00 74 1018.2
20260504011004 54 325 1.0 1.0 0.00 0.00 0.00 72 1018.3
20260504010504 54 325 0.0 2.0 0.00 0.00 0.00 72 1018.3
20260504010009 55 325 0.0 2.0 0.00 0.00 0.00 71 1018.3
20260504005504 55 325 1.0 2.0 0.00 0.00 0.00 71 1018.2
20260504005004 56 325 0.0 2.0 0.00 0.00 0.00 70 1018.3
20260504004519 56 325 0.0 2.0 0.00 0.00 0.00 67 1018.1
20260504004006 57 325 0.0 2.0 0.00 0.00 0.00 67 1018.0
20260504003503 58 325 1.0 2.0 0.00 0.00 0.00 65 1018.0
20260504003010 58 325 0.0 2.0 0.00 0.00 0.00 65 1017.9
20260504002506 59 325 1.0 1.0 0.00 0.00 0.00 63 1017.9
20260504002007 60 325 0.0 2.0 0.00 0.00 0.00 61 1018.0
20260504001512 61 325 0.0 2.0 0.00 0.00 0.00 60 1018.0
20260504001003 62 325 0.0 2.0 0.00 0.00 0.00 56 1017.9
20260504000503 64 325 0.0 2.0 0.00 0.00 0.00 53 1017.8
20260504000010 65 325 1.0 2.0 0.00 0.00 0.00 47 1017.8
20260503235504 66 336 1.0 3.0 0.00 0.00 0.00 47 1017.8
20260503235004 67 336 1.0 3.0 0.00 0.00 0.00 46 1017.8
20260503234525 67 340 1.0 3.0 0.00 0.00 0.00 45 1017.8
20260503234004 68 309 2.0 4.0 0.00 0.00 0.00 40 1017.8
20260503233504 69 321 2.0 4.0 0.00 0.00 0.00 37 1017.8
20260503233006 70 308 2.0 5.0 0.00 0.00 0.00 36 1017.8
20260503232507 70 334 2.0 5.0 0.00 0.00 0.00 34 1017.8
20260503232007 70 339 2.0 4.0 0.00 0.00 0.00 38 1017.8
20260503231512 70 301 2.0 8.0 0.00 0.00 0.00 33 1017.8
20260503231008 70 324 2.0 8.0 0.00 0.00 0.00 37 1017.8
20260503230510 70 279 3.0 7.0 0.00 0.00 0.00 31 1017.9
20260503230013 71 327 4.0 6.0 0.00 0.00 0.00 34 1017.9
20260503225507 71 325 2.0 8.0 0.00 0.00 0.00 34 1017.9
20260503225003 71 290 5.0 8.0 0.00 0.00 0.00 33 1017.9
20260503224512 70 340 3.0 8.0 0.00 0.00 0.00 31 1017.9
20260503224006 70 340 3.0 8.0 0.00 0.00 0.00 29 1017.9
20260503223509 70 275 5.0 8.0 0.00 0.00 0.00 31 1017.9
20260503223014 70 337 5.0 9.0 0.00 0.00 0.00 31 1017.9
20260503222507 71 315 4.0 10.0 0.00 0.00 0.00 30 1017.9
20260503222007 71 293 5.0 10.0 0.00 0.00 0.00 30 1018.0
20260503221519 72 319 6.0 10.0 0.00 0.00 0.00 30 1018.0
20260503221010 71 334 3.0 9.0 0.00 0.00 0.00 33 1018.0
20260503220508 71 338 3.0 10.0 0.00 0.00 0.00 31 1018.0
20260503220036 72 316 6.0 10.0 0.00 0.00 0.00 32 1018.0
20260503215507 72 5 3.0 10.0 0.00 0.00 0.00 32 1018.1
20260503215004 72 39 5.0 10.0 0.00 0.00 0.00 34 1018.1
20260503214515 72 15 5.0 13.0 0.00 0.00 0.00 33 1018.1
20260503214006 71 313 2.0 13.0 0.00 0.00 0.00 33 1018.2
20260503213505 71 322 8.0 13.0 0.00 0.00 0.00 32 1018.1
20260503213012 72 288 2.0 14.0 0.00 0.00 0.00 33 1018.2
20260503212503 72 302 5.0 14.0 0.00 0.00 0.00 31 1018.3
20260503212002 72 17 4.0 12.0 0.00 0.00 0.00 32 1018.3
20260503211504 71 340 6.0 12.0 0.00 0.00 0.00 33 1018.3
20260503211001 71 40 5.0 11.0 0.00 0.00 0.00 33 1018.4
20260503210502 71 25 4.0 11.0 0.00 0.00 0.00 34 1018.4
20260503210006 70 297 5.0 13.0 0.00 0.00 0.00 32 1018.5
20260503205502 71 302 8.0 13.0 0.00 0.00 0.00 30 1018.6
20260503205002 71 306 5.0 10.0 0.00 0.00 0.00 33 1018.7
20260503204506 71 319 3.0 12.0 0.00 0.00 0.00 32 1018.8
20260503204003 71 360 6.0 12.0 0.00 0.00 0.00 32 1018.9
20260503203504 71 360 7.0 12.0 0.00 0.00 0.00 27 1019.0
20260503203008 71 336 6.0 12.0 0.00 0.00 0.00 31 1019.1
20260503202506 71 322 6.0 12.0 0.00 0.00 0.00 30 1019.2
20260503202004 70 316 7.0 16.0 0.00 0.00 0.00 31 1019.3
20260503201504 70 284 8.0 15.0 0.00 0.00 0.00 30 1019.4
20260503201011 70 15 6.0 12.0 0.00 0.00 0.00 31 1019.4
20260503200502 70 316 6.0 14.0 0.00 0.00 0.00 34 1019.5
20260503200004 70 340 6.0 14.0 0.00 0.00 0.00 32 1019.6
20260503195503 70 360 9.0 14.0 0.00 0.00 0.00 32 1019.7
20260503195002 69 40 9.0 15.0 0.00 0.00 0.00 34 1019.7
20260503194507 69 294 7.0 15.0 0.00 0.00 0.00 32 1019.8
20260503194002 70 321 3.0 14.0 0.00 0.00 0.00 34 1019.8
20260503193502 69 324 5.0 15.0 0.00 0.00 0.00 33 1019.8
20260503193011 69 313 9.0 15.0 0.00 0.00 0.00 31 1019.9
20260503192505 70 321 6.0 14.0 0.00 0.00 0.00 34 1020.1
20260503192008 69 340 7.0 14.0 0.00 0.00 0.00 36 1020.2
20260503191520 69 61 5.0 17.0 0.00 0.00 0.00 35 1020.3
20260503191006 69 299 10.0 17.0 0.00 0.00 0.00 31 1020.4
20260503190508 69 9 8.0 20.0 0.00 0.00 0.00 33 1020.5
20260503190011 69 325 4.0 20.0 0.00 0.00 0.00 33 1020.4
20260503185503 69 324 10.0 16.0 0.00 0.00 0.00 34 1020.5
20260503185006 69 28 8.0 15.0 0.00 0.00 0.00 35 1020.6
20260503184504 68 340 7.0 14.0 0.00 0.00 0.00 36 1020.6
20260503184004 68 284 7.0 15.0 0.00 0.00 0.00 31 1020.6
20260503183505 68 295 8.0 18.0 0.00 0.00 0.00 35 1020.8
20260503183006 68 340 10.0 18.0 0.00 0.00 0.00 31 1020.8
20260503182503 68 317 9.0 18.0 0.00 0.00 0.00 34 1020.8
20260503182006 68 302 7.0 15.0 0.00 0.00 0.00 35 1020.9
20260503181505 67 330 6.0 19.0 0.00 0.00 0.00 34 1020.9
20260503181006 67 340 9.0 19.0 0.00 0.00 0.00 37 1020.9
20260503180504 67 260 9.0 17.0 0.00 0.00 0.00 34 1021.0